Time,TemperatureF,DewpointF,PressureIn,WindDirection,WindDirectionDegrees,WindSpeedMPH,WindSpeedGustMPH,Humidity,HourlyPrecipIn,Conditions,Clouds,dailyrainin,SoftwareType,DateUTC
2013-10-11 00:07:00,56.5,56.0,0.00,WNW,297,0.0,-999.0,98,-99.99,,,0.00,weatherlink.com 1.10,2013-10-11 04:07:00,
2013-10-11 00:22:00,56.5,56.0,0.00,WNW,288,0.0,-999.0,98,-99.99,,,0.00,weatherlink.com 1.10,2013-10-11 04:22:00,
2013-10-11 00:37:00,56.6,56.0,0.00,WNW,298,3.0,-999.0,98,-99.99,,,0.00,weatherlink.com 1.10,2013-10-11 04:37:00,
2013-10-11 00:53:00,56.7,56.0,0.00,NNW,347,0.0,-999.0,98,-99.99,,,0.01,weatherlink.com 1.10,2013-10-11 04:53:00,
2013-10-11 01:08:00,56.9,56.0,0.00,NNW,331,0.0,-999.0,98,-99.99,,,0.01,weatherlink.com 1.10,2013-10-11 05:08:00,
2013-10-11 01:23:00,57.0,57.0,28.69,NW,308,0.0,-999.0,98,-99.99,,,0.01,weatherlink.com 1.10,2013-10-11 05:23:00,
2013-10-11 01:38:00,57.2,57.0,28.69,WNW,290,0.0,-999.0,98,-99.99,,,0.01,weatherlink.com 1.10,2013-10-11 05:38:00,
2013-10-11 01:53:00,57.3,57.0,28.69,NW,309,0.0,-999.0,98,-99.99,,,0.01,weatherlink.com 1.10,2013-10-11 05:53:00,
2013-10-11 02:08:00,57.5,57.0,28.69,WNW,300,0.0,-999.0,98,-99.99,,,0.01,weatherlink.com 1.10,2013-10-11 06:08:00,
2013-10-11 02:23:00,57.6,57.0,28.69,WNW,303,0.0,-999.0,98,-99.99,,,0.01,weatherlink.com 1.10,2013-10-11 06:23:00,
2013-10-11 02:38:00,57.8,57.0,28.87,North,350,0.0,-999.0,98,-99.99,,,0.01,weatherlink.com 1.10,2013-10-11 06:38:00,
2013-10-11 02:53:00,57.9,57.0,28.87,NE,34,0.0,-999.0,98,-99.99,,,0.01,weatherlink.com 1.10,2013-10-11 06:53:00,
2013-10-11 03:08:00,58.0,58.0,28.87,NW,313,0.0,-999.0,98,-99.99,,,0.01,weatherlink.com 1.10,2013-10-11 07:08:00,
2013-10-11 03:23:00,58.1,58.0,28.87,NW,306,0.0,-999.0,98,-99.99,,,0.01,weatherlink.com 1.10,2013-10-11 07:23:00,
2013-10-11 03:38:00,58.2,58.0,28.87,South,175,0.0,-999.0,98,-99.99,,,0.01,weatherlink.com 1.10,2013-10-11 07:38:00,
2013-10-11 03:53:00,58.3,58.0,28.87,NW,319,0.0,-999.0,98,-99.99,,,0.01,weatherlink.com 1.10,2013-10-11 07:53:00,
2013-10-11 04:08:00,58.4,58.0,28.87,NW,314,0.0,-999.0,98,-99.99,,,0.01,weatherlink.com 1.10,2013-10-11 08:08:00,
2013-10-11 04:23:00,58.4,58.0,28.87,NW,311,1.0,-999.0,98,-99.99,,,0.07,weatherlink.com 1.10,2013-10-11 08:23:00,
2013-10-11 04:38:00,58.4,58.0,28.87,North,5,1.0,-999.0,98,-99.99,,,0.13,weatherlink.com 1.10,2013-10-11 08:38:00,
2013-10-11 04:53:00,58.4,58.0,32.46,WNW,303,0.0,-999.0,98,-99.99,,,0.13,weatherlink.com 1.10,2013-10-11 08:53:00,
2013-10-11 05:08:00,58.4,58.0,32.46,NW,304,0.0,-999.0,98,-99.99,,,0.13,weatherlink.com 1.10,2013-10-11 09:08:00,
2013-10-11 05:23:00,58.4,58.0,32.46,NNW,327,0.0,-999.0,98,-99.99,,,0.13,weatherlink.com 1.10,2013-10-11 09:23:00,
2013-10-11 05:38:00,58.4,58.0,32.46,WNW,283,0.0,-999.0,98,-99.99,,,0.13,weatherlink.com 1.10,2013-10-11 09:38:00,
2013-10-11 05:53:00,58.4,58.0,32.46,NW,309,0.0,-999.0,98,-99.99,,,0.13,weatherlink.com 1.10,2013-10-11 09:53:00,
2013-10-11 06:08:00,58.4,58.0,32.46,NW,309,0.0,-999.0,98,-99.99,,,0.13,weatherlink.com 1.10,2013-10-11 10:08:00,
2013-10-11 06:23:00,58.4,58.0,32.46,WNW,296,0.0,-999.0,98,-99.99,,,0.13,weatherlink.com 1.10,2013-10-11 10:23:00,
2013-10-11 06:38:00,58.4,58.0,32.46,WNW,299,0.0,-999.0,98,-99.99,,,0.13,weatherlink.com 1.10,2013-10-11 10:38:00,
2013-10-11 06:53:00,58.4,58.0,30.55,WNW,299,0.0,-999.0,98,-99.99,,,0.13,weatherlink.com 1.10,2013-10-11 10:53:00,
2013-10-11 07:08:00,58.4,58.0,30.55,NW,321,0.0,-999.0,98,-99.99,,,0.13,weatherlink.com 1.10,2013-10-11 11:08:00,
2013-10-11 07:23:00,58.4,58.0,30.55,WNW,291,1.0,-999.0,98,-99.99,,,0.13,weatherlink.com 1.10,2013-10-11 11:23:00,
2013-10-11 07:38:00,58.4,58.0,30.55,West,274,2.0,-999.0,98,-99.99,,,0.14,weatherlink.com 1.10,2013-10-11 11:38:00,
2013-10-11 07:53:00,58.4,58.0,30.55,NW,304,0.0,-999.0,98,-99.99,,,0.17,weatherlink.com 1.10,2013-10-11 11:53:00,
2013-10-11 08:08:00,58.4,58.0,30.55,NW,316,0.0,-999.0,98,-99.99,,,0.19,weatherlink.com 1.10,2013-10-11 12:08:00,
2013-10-11 08:23:00,58.4,58.0,30.55,NW,325,1.0,-999.0,98,-99.99,,,0.25,weatherlink.com 1.10,2013-10-11 12:23:00,
2013-10-11 08:38:00,58.5,58.0,30.55,WNW,283,0.0,-999.0,98,-99.99,,,0.26,weatherlink.com 1.10,2013-10-11 12:38:00,
2013-10-11 08:53:00,58.7,58.0,30.55,WNW,292,0.0,-999.0,98,-99.99,,,0.26,weatherlink.com 1.10,2013-10-11 12:53:00,
2013-10-11 09:08:00,59.0,59.0,30.55,West,271,1.0,-999.0,100,-99.99,,,0.26,weatherlink.com 1.10,2013-10-11 13:08:00,
2013-10-11 09:23:00,59.0,59.0,30.55,WNW,291,0.0,-999.0,98,-99.99,,,0.27,weatherlink.com 1.10,2013-10-11 13:23:00,
2013-10-11 09:38:00,59.0,59.0,30.55,NNW,327,0.0,-999.0,98,-99.99,,,0.27,weatherlink.com 1.10,2013-10-11 13:38:00,
2013-10-11 09:53:00,59.4,59.0,30.55,WNW,296,0.0,-999.0,98,-99.99,,,0.27,weatherlink.com 1.10,2013-10-11 13:53:00,
2013-10-11 10:08:00,59.7,59.0,30.55,NW,309,0.0,-999.0,98,-99.99,,,0.27,weatherlink.com 1.10,2013-10-11 14:08:00,
2013-10-11 10:23:00,59.9,59.0,30.55,NW,317,0.0,-999.0,98,-99.99,,,0.27,weatherlink.com 1.10,2013-10-11 14:23:00,
2013-10-11 10:38:00,60.0,60.0,30.55,WNW,302,0.0,-999.0,98,-99.99,,,0.29,weatherlink.com 1.10,2013-10-11 14:38:00,
2013-10-11 10:53:00,60.3,60.0,30.55,WNW,302,0.0,-999.0,98,-99.99,,,0.36,weatherlink.com 1.10,2013-10-11 14:53:00,
2013-10-11 11:08:00,60.7,60.0,30.55,WNW,302,0.0,-999.0,98,-99.99,,,0.49,weatherlink.com 1.10,2013-10-11 15:08:00,
2013-10-11 11:23:00,61.1,61.0,30.55,ENE,69,0.0,-999.0,99,-99.99,,,0.52,weatherlink.com 1.10,2013-10-11 15:23:00,
2013-10-11 11:38:00,61.3,61.0,30.55,NW,311,0.0,-999.0,98,-99.99,,,0.59,weatherlink.com 1.10,2013-10-11 15:38:00,
2013-10-11 11:53:00,61.6,61.0,21.12,WNW,299,0.0,-999.0,99,-99.99,,,0.78,weatherlink.com 1.10,2013-10-11 15:53:00,
2013-10-11 12:08:00,61.6,61.0,21.12,NW,309,0.0,-999.0,99,-99.99,,,0.90,weatherlink.com 1.10,2013-10-11 16:08:00,
2013-10-11 12:23:00,61.8,62.0,21.12,NW,325,1.0,-999.0,99,-99.99,,,0.92,weatherlink.com 1.10,2013-10-11 16:23:00,
2013-10-11 12:38:00,61.8,62.0,21.12,ESE,111,0.0,-999.0,99,-99.99,,,0.92,weatherlink.com 1.10,2013-10-11 16:38:00,
2013-10-11 12:53:00,61.9,61.0,21.12,West,276,0.0,-999.0,98,-99.99,,,0.95,weatherlink.com 1.10,2013-10-11 16:53:00,
2013-10-11 13:08:00,62.0,62.0,21.12,WNW,301,0.0,-999.0,99,-99.99,,,0.98,weatherlink.com 1.10,2013-10-11 17:08:00,
2013-10-11 13:23:00,61.9,61.0,21.12,NW,306,0.0,-999.0,98,-99.99,,,0.99,weatherlink.com 1.10,2013-10-11 17:23:00,
2013-10-11 13:38:00,61.9,62.0,21.12,NNE,24,0.0,-999.0,99,-99.99,,,0.99,weatherlink.com 1.10,2013-10-11 17:38:00,
2013-10-11 13:53:00,62.0,62.0,21.12,WNW,287,1.0,-999.0,98,-99.99,,,1.00,weatherlink.com 1.10,2013-10-11 17:53:00,
2013-10-11 14:08:00,62.2,62.0,21.12,WNW,283,0.0,-999.0,98,-99.99,,,1.00,weatherlink.com 1.10,2013-10-11 18:08:00,
2013-10-11 14:23:00,62.0,62.0,21.12,NW,309,0.0,-999.0,98,-99.99,,,1.01,weatherlink.com 1.10,2013-10-11 18:23:00,
2013-10-11 14:38:00,62.1,62.0,21.12,NW,309,0.0,-999.0,98,-99.99,,,1.01,weatherlink.com 1.10,2013-10-11 18:38:00,
2013-10-11 14:53:00,61.8,61.0,21.12,NW,326,0.0,-999.0,98,-99.99,,,1.01,weatherlink.com 1.10,2013-10-11 18:53:00,
2013-10-11 15:08:00,61.9,61.0,21.12,WNW,286,0.0,-999.0,98,-99.99,,,1.01,weatherlink.com 1.10,2013-10-11 19:08:00,
2013-10-11 15:23:00,61.9,61.0,21.12,NW,322,1.0,-999.0,98,-99.99,,,1.01,weatherlink.com 1.10,2013-10-11 19:23:00,
2013-10-11 15:38:00,62.1,62.0,21.12,NNW,348,0.0,-999.0,98,-99.99,,,1.01,weatherlink.com 1.10,2013-10-11 19:38:00,
2013-10-11 15:53:00,62.1,62.0,21.12,NW,304,2.0,-999.0,98,-99.99,,,1.01,weatherlink.com 1.10,2013-10-11 19:53:00,
2013-10-11 16:08:00,62.0,62.0,21.12,NE,49,0.0,-999.0,98,-99.99,,,1.01,weatherlink.com 1.10,2013-10-11 20:08:00,
2013-10-11 16:24:00,61.8,61.0,21.12,NW,320,1.0,-999.0,98,-99.99,,,1.01,weatherlink.com 1.10,2013-10-11 20:24:00,
2013-10-11 16:39:00,61.7,61.0,21.12,NNW,346,0.0,-999.0,98,-99.99,,,1.05,weatherlink.com 1.10,2013-10-11 20:39:00,
2013-10-11 16:54:00,61.7,61.0,21.12,WNW,289,0.0,-999.0,98,-99.99,,,1.15,weatherlink.com 1.10,2013-10-11 20:54:00,
2013-10-11 17:09:00,61.6,61.0,21.12,NW,313,0.0,-999.0,98,-99.99,,,1.17,weatherlink.com 1.10,2013-10-11 21:09:00,
2013-10-11 17:24:00,61.6,61.0,21.12,NW,313,0.0,-999.0,98,-99.99,,,1.19,weatherlink.com 1.10,2013-10-11 21:24:00,
2013-10-11 17:39:00,61.7,61.0,21.12,NW,313,0.0,-999.0,98,-99.99,,,1.20,weatherlink.com 1.10,2013-10-11 21:39:00,
2013-10-11 17:54:00,61.8,61.0,21.12,NW,314,0.0,-999.0,98,-99.99,,,1.22,weatherlink.com 1.10,2013-10-11 21:54:00,
2013-10-11 18:09:00,61.9,61.0,21.12,NW,314,0.0,-999.0,98,-99.99,,,1.25,weatherlink.com 1.10,2013-10-11 22:09:00,
2013-10-11 18:24:00,62.1,62.0,21.12,NW,315,0.0,-999.0,99,-99.99,,,1.26,weatherlink.com 1.10,2013-10-11 22:24:00,
2013-10-11 18:39:00,62.3,62.0,21.12,NNW,331,0.0,-999.0,99,-99.99,,,1.27,weatherlink.com 1.10,2013-10-11 22:39:00,
2013-10-11 18:54:00,62.5,62.0,21.12,NW,309,0.0,-999.0,99,-99.99,,,1.30,weatherlink.com 1.10,2013-10-11 22:54:00,
2013-10-11 19:09:00,62.5,62.0,21.12,NW,315,0.0,-999.0,99,-99.99,,,1.32,weatherlink.com 1.10,2013-10-11 23:09:00,
2013-10-11 19:24:00,62.5,62.0,21.12,NW,325,0.0,-999.0,99,-99.99,,,1.38,weatherlink.com 1.10,2013-10-11 23:24:00,
2013-10-11 19:39:00,62.4,62.0,21.12,NW,325,0.0,-999.0,99,-99.99,,,1.44,weatherlink.com 1.10,2013-10-11 23:39:00,
2013-10-11 19:54:00,62.3,62.0,21.12,NW,325,0.0,-999.0,99,-99.99,,,1.51,weatherlink.com 1.10,2013-10-11 23:54:00,
2013-10-11 20:09:00,62.2,62.0,21.12,NW,325,0.0,-999.0,99,-99.99,,,1.58,weatherlink.com 1.10,2013-10-12 00:09:00,
2013-10-11 20:24:00,62.2,62.0,21.12,NW,306,0.0,-999.0,99,-99.99,,,1.67,weatherlink.com 1.10,2013-10-12 00:24:00,
2013-10-11 20:39:00,62.2,62.0,21.12,NW,306,0.0,-999.0,99,-99.99,,,1.76,weatherlink.com 1.10,2013-10-12 00:39:00,
2013-10-11 20:54:00,62.2,62.0,21.12,NW,317,0.0,-999.0,99,-99.99,,,1.88,weatherlink.com 1.10,2013-10-12 00:54:00,
2013-10-11 21:09:00,62.2,62.0,21.12,NW,317,0.0,-999.0,99,-99.99,,,2.00,weatherlink.com 1.10,2013-10-12 01:09:00,
2013-10-11 21:24:00,62.2,62.0,21.12,WNW,283,0.0,-999.0,99,-99.99,,,2.09,weatherlink.com 1.10,2013-10-12 01:24:00,
2013-10-11 21:39:00,62.2,62.0,21.12,NNW,336,0.0,-999.0,99,-99.99,,,2.21,weatherlink.com 1.10,2013-10-12 01:39:00,
2013-10-11 21:54:00,62.2,62.0,21.12,NW,324,0.0,-999.0,99,-99.99,,,2.33,weatherlink.com 1.10,2013-10-12 01:54:00,
2013-10-11 22:09:00,62.2,62.0,21.12,North,5,0.0,-999.0,99,-99.99,,,2.41,weatherlink.com 1.10,2013-10-12 02:09:00,
2013-10-11 22:24:00,62.4,62.0,21.12,NNE,22,0.0,-999.0,99,-99.99,,,2.45,weatherlink.com 1.10,2013-10-12 02:24:00,
2013-10-11 22:39:00,62.4,62.0,21.12,WSW,246,0.0,-999.0,99,-99.99,,,2.46,weatherlink.com 1.10,2013-10-12 02:39:00,
2013-10-11 22:54:00,62.4,62.0,21.12,SW,217,1.0,-999.0,99,-99.99,,,2.46,weatherlink.com 1.10,2013-10-12 02:54:00,
2013-10-11 23:09:00,62.4,62.0,21.12,North,355,0.0,-999.0,99,-99.99,,,2.46,weatherlink.com 1.10,2013-10-12 03:09:00,
2013-10-11 23:24:00,62.4,62.0,21.12,WNW,288,0.0,-999.0,99,-99.99,,,2.47,weatherlink.com 1.10,2013-10-12 03:24:00,
2013-10-11 23:39:00,62.4,62.0,21.12,NW,325,1.0,-999.0,99,-99.99,,,2.47,weatherlink.com 1.10,2013-10-12 03:39:00,
2013-10-11 23:54:00,62.5,62.0,21.12,East,89,0.0,-999.0,99,-99.99,,,2.47,weatherlink.com 1.10,2013-10-12 03:54:00,